Time,TemperatureF,DewpointF,PressureIn,WindDirection,WindDirectionDegrees,WindSpeedMPH,WindSpeedGustMPH,Humidity,HourlyPrecipIn,Conditions,Clouds,dailyrainin,SoftwareType,DateUTC
2013-07-10 00:01:00,78.0,69.0,29.99,SSW,207,0.0,1.0,74,0.00,,,0.19,,2013-07-10 04:01:00,
2013-07-10 00:11:00,77.0,68.0,29.99,SSW,205,1.0,4.0,74,0.00,,,0.19,,2013-07-10 04:11:00,
2013-07-10 00:22:00,77.0,68.0,29.99,SSW,205,1.0,4.0,74,0.00,,,0.19,,2013-07-10 04:22:00,
2013-07-10 00:33:00,78.0,69.0,29.99,SSW,207,2.0,7.0,73,0.00,,,0.19,,2013-07-10 04:33:00,
2013-07-10 00:43:00,78.0,69.0,29.98,SSW,207,2.0,5.0,73,0.00,,,0.19,,2013-07-10 04:43:00,
2013-07-10 00:52:00,78.0,69.0,29.98,SSW,207,3.0,5.0,74,0.00,,,0.19,,2013-07-10 04:52:00,
2013-07-10 01:02:00,77.0,68.0,29.98,SSW,207,3.0,6.0,75,0.00,,,0.19,,2013-07-10 05:02:00,
2013-07-10 01:12:00,77.0,68.0,29.98,SSW,207,2.0,4.0,75,0.00,,,0.19,,2013-07-10 05:12:00,
2013-07-10 01:22:00,76.0,68.0,29.98,SSW,207,0.0,0.0,76,0.00,,,0.19,,2013-07-10 05:22:00,
2013-07-10 01:32:00,75.0,67.0,29.98,SSW,207,0.0,1.0,77,0.00,,,0.19,,2013-07-10 05:32:00,
2013-07-10 01:52:00,74.0,67.0,29.98,SSW,207,0.0,2.0,79,0.00,,,0.19,,2013-07-10 05:52:00,
2013-07-10 02:01:00,75.0,68.0,29.98,SSW,207,2.0,5.0,79,0.00,,,0.19,,2013-07-10 06:01:00,
2013-07-10 02:11:00,75.0,68.0,29.98,SSW,207,1.0,5.0,79,0.00,,,0.19,,2013-07-10 06:11:00,
2013-07-10 02:22:00,75.0,68.0,29.98,SSW,207,1.0,2.0,79,0.00,,,0.19,,2013-07-10 06:22:00,
2013-07-10 02:32:00,75.0,68.0,29.98,SSW,207,0.0,2.0,78,0.00,,,0.19,,2013-07-10 06:32:00,
2013-07-10 02:42:00,76.0,68.0,29.98,SSW,207,0.0,3.0,77,0.00,,,0.19,,2013-07-10 06:42:00,
2013-07-10 02:52:00,76.0,68.0,29.98,SSW,207,0.0,0.0,76,0.00,,,0.19,,2013-07-10 06:52:00,
2013-07-10 03:01:00,76.0,68.0,29.97,SSW,207,0.0,0.0,76,0.00,,,0.19,,2013-07-10 07:01:00,
2013-07-10 03:12:00,76.0,68.0,29.97,SSW,207,0.0,0.0,76,0.00,,,0.19,,2013-07-10 07:12:00,
2013-07-10 03:22:00,76.0,68.0,29.97,SSW,207,0.0,0.0,76,0.00,,,0.19,,2013-07-10 07:22:00,
2013-07-10 03:33:00,75.0,67.0,29.96,SSW,207,0.0,0.0,77,0.00,,,0.19,,2013-07-10 07:33:00,
2013-07-10 03:43:00,76.0,68.0,29.96,SSW,207,0.0,1.0,77,0.00,,,0.19,,2013-07-10 07:43:00,
2013-07-10 03:53:00,76.0,68.0,29.96,SSW,207,0.0,1.0,76,0.00,,,0.19,,2013-07-10 07:53:00,
2013-07-10 04:02:00,76.0,67.0,29.96,SSW,207,0.0,2.0,75,0.00,,,0.19,,2013-07-10 08:02:00,
2013-07-10 04:11:00,76.0,67.0,29.96,SSW,207,1.0,2.0,75,0.00,,,0.19,,2013-07-10 08:11:00,
2013-07-10 04:33:00,75.0,67.0,29.96,SSW,209,0.0,4.0,75,0.00,,,0.19,,2013-07-10 08:33:00,
2013-07-10 04:42:00,75.0,67.0,29.96,SSW,209,1.0,4.0,76,0.00,,,0.19,,2013-07-10 08:42:00,
2013-07-10 04:53:00,75.0,67.0,29.96,SSW,209,1.0,4.0,76,0.00,,,0.19,,2013-07-10 08:53:00,
2013-07-10 05:02:00,75.0,67.0,29.96,SSW,209,0.0,3.0,76,0.00,,,0.19,,2013-07-10 09:02:00,
2013-07-10 05:12:00,75.0,67.0,29.96,SSW,213,1.0,5.0,76,0.00,,,0.19,,2013-07-10 09:12:00,
2013-07-10 05:52:00,74.0,66.0,29.96,WSW,257,0.0,0.0,77,0.00,,,0.19,,2013-07-10 09:52:00,
2013-07-10 06:01:00,74.0,66.0,29.96,WSW,257,0.0,0.0,77,0.00,,,0.19,,2013-07-10 10:01:00,
2013-07-10 06:13:00,74.0,66.0,29.96,WSW,257,0.0,0.0,77,0.00,,,0.19,,2013-07-10 10:13:00,
2013-07-10 06:51:00,-999.0,-99.9,29.96,West,262,0.0,0.0,-999,-99.99,,,-99.99,,2013-07-10 10:51:00,
2013-07-10 07:00:00,-999.0,-99.9,29.96,West,262,0.0,0.0,-999,-99.99,,,-99.99,,2013-07-10 11:00:00,
2013-07-10 07:43:00,76.0,68.0,29.97,SSW,197,0.0,3.0,76,0.00,,,0.19,,2013-07-10 11:43:00,
2013-07-10 07:52:00,76.0,68.0,29.97,SSW,197,1.0,3.0,76,0.00,,,0.19,,2013-07-10 11:52:00,
2013-07-10 08:02:00,76.0,68.0,29.97,SSW,197,0.0,2.0,76,0.00,,,0.19,,2013-07-10 12:02:00,
2013-07-10 08:22:00,76.0,68.0,29.97,SSW,197,0.0,3.0,76,0.00,,,0.19,,2013-07-10 12:22:00,
2013-07-10 08:53:00,76.0,69.0,29.97,SSW,197,1.0,3.0,78,0.00,,,0.19,,2013-07-10 12:53:00,
2013-07-10 09:01:00,76.0,69.0,29.97,SSW,197,0.0,4.0,78,0.00,,,0.19,,2013-07-10 13:01:00,
2013-07-10 09:11:00,76.0,69.0,29.97,SSW,197,0.0,4.0,78,0.00,,,0.19,,2013-07-10 13:11:00,
2013-07-10 09:32:00,76.0,69.0,29.98,SSW,197,1.0,3.0,78,0.00,,,0.19,,2013-07-10 13:32:00,
2013-07-10 09:43:00,76.0,69.0,29.98,SSW,200,0.0,3.0,79,0.00,,,0.19,,2013-07-10 13:43:00,
2013-07-10 09:52:00,76.0,69.0,29.98,SSW,200,2.0,5.0,78,0.00,,,0.19,,2013-07-10 13:52:00,
2013-07-10 10:01:00,76.0,69.0,29.98,SSW,200,0.0,2.0,79,0.00,,,0.19,,2013-07-10 14:01:00,
2013-07-10 10:53:00,76.0,69.0,30.00,NNW,342,3.0,6.0,79,0.01,,,0.19,,2013-07-10 14:53:00,
2013-07-10 11:01:00,76.0,69.0,29.98,NNW,342,0.0,0.0,80,0.03,,,0.21,,2013-07-10 15:01:00,
2013-07-10 11:11:00,76.0,69.0,29.99,NNW,342,0.0,0.0,80,0.03,,,0.21,,2013-07-10 15:11:00,
2013-07-10 11:42:00,78.0,71.0,29.98,South,185,4.0,5.0,78,0.03,,,0.21,,2013-07-10 15:42:00,
2013-07-10 11:52:00,78.0,71.0,29.98,SSW,208,3.0,7.0,78,0.02,,,0.21,,2013-07-10 15:52:00,
2013-07-10 12:01:00,79.0,71.0,29.98,SSW,211,5.0,7.0,77,0.01,,,0.21,,2013-07-10 16:01:00,
2013-07-10 12:44:00,80.0,72.0,29.96,SSW,213,5.0,10.0,76,0.00,,,0.21,,2013-07-10 16:44:00,
2013-07-10 12:53:00,80.0,72.0,29.95,SSW,213,5.0,10.0,76,0.00,,,0.21,,2013-07-10 16:53:00,
2013-07-10 13:43:00,83.0,72.0,29.93,SW,219,6.0,12.0,70,0.00,,,0.19,,2013-07-10 17:43:00,
2013-07-10 13:53:00,82.0,72.0,29.92,SW,220,6.0,13.0,71,0.00,,,0.19,,2013-07-10 17:53:00,
2013-07-10 14:02:00,82.0,72.0,29.91,SSW,192,9.0,17.0,71,0.00,,,0.19,,2013-07-10 18:02:00,
2013-07-10 14:11:00,81.0,71.0,29.91,SW,228,4.0,14.0,71,0.00,,,0.19,,2013-07-10 18:11:00,
2013-07-10 14:53:00,76.0,66.0,29.93,West,263,0.0,5.0,72,0.01,,,0.04,,2013-07-10 18:53:00,
2013-07-10 15:01:00,76.0,67.0,29.91,WSW,257,2.0,4.0,73,0.01,,,0.04,,2013-07-10 19:01:00,
2013-07-10 15:32:00,79.0,68.0,29.91,WSW,238,4.0,8.0,69,0.01,,,0.04,,2013-07-10 19:32:00,
2013-07-10 15:42:00,81.0,68.0,29.90,SW,217,4.0,9.0,65,0.01,,,0.04,,2013-07-10 19:42:00,
2013-07-10 15:53:00,81.0,69.0,29.89,SW,221,3.0,9.0,66,0.00,,,0.04,,2013-07-10 19:53:00,
2013-07-10 16:02:00,82.0,68.0,29.88,SW,219,4.0,7.0,63,0.00,,,0.04,,2013-07-10 20:02:00,
2013-07-10 16:22:00,83.0,69.0,29.87,SW,219,2.0,8.0,62,0.00,,,0.04,,2013-07-10 20:22:00,
2013-07-10 16:32:00,83.0,70.0,29.85,SSW,204,4.0,8.0,64,0.00,,,0.04,,2013-07-10 20:32:00,
2013-07-10 16:43:00,83.0,70.0,29.85,SW,215,3.0,7.0,65,0.00,,,0.04,,2013-07-10 20:43:00,
2013-07-10 17:01:00,85.0,70.0,29.85,SSW,200,3.0,6.0,62,0.00,,,0.04,,2013-07-10 21:01:00,
2013-07-10 17:11:00,85.0,71.0,29.85,SW,221,6.0,10.0,63,0.00,,,0.04,,2013-07-10 21:11:00,
2013-07-10 17:22:00,85.0,71.0,29.85,SW,219,4.0,10.0,63,0.00,,,0.04,,2013-07-10 21:22:00,
2013-07-10 17:32:00,85.0,72.0,29.86,SW,234,3.0,7.0,65,0.00,,,0.04,,2013-07-10 21:32:00,
2013-07-10 17:42:00,85.0,72.0,29.85,SW,215,6.0,10.0,65,0.00,,,0.04,,2013-07-10 21:42:00,
2013-07-10 17:52:00,85.0,71.0,29.86,SSW,197,7.0,10.0,63,0.00,,,0.04,,2013-07-10 21:52:00,
2013-07-10 18:01:00,84.0,71.0,29.86,SW,220,5.0,10.0,66,0.00,,,0.04,,2013-07-10 22:01:00,
2013-07-10 18:33:00,84.0,71.0,29.86,South,184,4.0,8.0,65,0.00,,,0.04,,2013-07-10 22:33:00,
2013-07-10 18:43:00,84.0,71.0,29.86,SSW,207,5.0,11.0,65,0.00,,,0.04,,2013-07-10 22:43:00,
2013-07-10 18:53:00,84.0,71.0,29.86,South,191,2.0,6.0,65,0.00,,,0.04,,2013-07-10 22:53:00,
2013-07-10 19:01:00,84.0,70.0,29.86,South,189,2.0,7.0,64,0.00,,,0.04,,2013-07-10 23:01:00,
2013-07-10 19:22:00,84.0,71.0,29.86,SSW,200,4.0,8.0,66,0.00,,,0.04,,2013-07-10 23:22:00,
2013-07-10 19:32:00,84.0,72.0,29.86,SSW,202,3.0,7.0,67,0.00,,,0.04,,2013-07-10 23:32:00,
2013-07-10 19:43:00,84.0,72.0,29.86,SSW,202,3.0,7.0,67,0.00,,,0.04,,2013-07-10 23:43:00,
2013-07-10 19:52:00,83.0,72.0,29.86,SSW,203,3.0,6.0,69,0.00,,,0.04,,2013-07-10 23:52:00,
2013-07-10 20:01:00,83.0,72.0,29.86,SSW,194,1.0,6.0,70,0.00,,,0.04,,2013-07-11 00:01:00,
2013-07-10 20:11:00,83.0,72.0,29.87,WSW,241,3.0,7.0,70,0.00,,,0.04,,2013-07-11 00:11:00,
2013-07-10 20:22:00,82.0,72.0,29.87,SSW,202,4.0,7.0,71,0.00,,,0.04,,2013-07-11 00:22:00,
2013-07-10 20:32:00,82.0,72.0,29.87,SSW,196,4.0,7.0,71,0.00,,,0.04,,2013-07-11 00:32:00,
2013-07-10 20:42:00,82.0,72.0,29.86,WSW,240,1.0,7.0,72,0.00,,,0.04,,2013-07-11 00:42:00,
2013-07-10 20:52:00,82.0,72.0,29.86,WSW,240,1.0,7.0,72,0.00,,,0.04,,2013-07-11 00:52:00,
2013-07-10 21:01:00,82.0,72.0,29.86,SSW,200,4.0,7.0,73,0.00,,,0.04,,2013-07-11 01:01:00,
2013-07-10 21:22:00,81.0,72.0,29.86,SSW,209,3.0,8.0,73,0.00,,,0.04,,2013-07-11 01:22:00,
2013-07-10 21:32:00,81.0,72.0,29.86,SSW,209,3.0,7.0,73,0.00,,,0.04,,2013-07-11 01:32:00,
2013-07-10 21:43:00,81.0,72.0,29.86,SSW,202,3.0,7.0,73,0.00,,,0.04,,2013-07-11 01:43:00,
2013-07-10 21:52:00,81.0,72.0,29.85,SSW,209,4.0,6.0,74,0.00,,,0.04,,2013-07-11 01:52:00,
2013-07-10 22:02:00,81.0,72.0,29.86,SSW,209,4.0,7.0,73,0.00,,,0.04,,2013-07-11 02:02:00,
2013-07-10 22:11:00,80.0,71.0,29.87,SW,217,3.0,9.0,74,0.00,,,0.04,,2013-07-11 02:11:00,
2013-07-10 22:43:00,80.0,71.0,29.88,NNW,340,5.0,10.0,73,0.00,,,0.04,,2013-07-11 02:43:00,
2013-07-10 22:53:00,80.0,69.0,29.88,NNW,327,0.0,2.0,70,0.00,,,0.04,,2013-07-11 02:53:00,
2013-07-10 23:02:00,79.0,68.0,29.88,NNW,327,0.0,0.0,69,0.00,,,0.04,,2013-07-11 03:02:00,
2013-07-10 23:11:00,79.0,68.0,29.87,North,360,3.0,5.0,69,0.00,,,0.04,,2013-07-11 03:11:00,
2013-07-10 23:22:00,78.0,67.0,29.87,North,5,2.0,4.0,70,0.00,,,0.04,,2013-07-11 03:22:00,